FW3224 Weather Reports


time (UTC)temp
C
wind
direction
speed
KPH
gust
KPH
rain 1hr
cm
rain 24hr
cm
rain mn
cm
humidity
%
barometer
mb
20260831062557 19 60 0.0 6.4 0.00 0.03 0.03 59 1028.1
20260831062058 19 123 1.6 12.9 0.00 0.03 0.03 58 1028.0
20260831061558 19 266 4.8 12.9 0.00 0.03 0.03 57 1028.0
20260831061056 19 89 0.0 6.4 0.00 0.03 0.03 63 1028.0
20260831060555 19 24 1.6 6.4 0.00 0.03 0.03 62 1028.0
20260831060055 20 65 1.6 6.4 0.00 0.03 0.03 61 1028.0
20260831055556 20 329 0.0 6.4 0.00 0.03 0.03 60 1028.0
20260831055059 20 328 1.6 8.0 0.00 0.03 0.03 58 1027.9
20260831054556 20 49 3.2 12.9 0.00 0.03 0.03 58 1027.9
20260831054056 20 67 1.6 6.4 0.00 0.03 0.03 57 1028.0
20260831053558 20 68 1.6 6.4 0.00 0.03 0.03 54 1027.9
20260831053055 20 94 1.6 14.5 0.00 0.03 0.03 53 1028.0
20260831052555 20 78 4.8 14.5 0.00 0.03 0.03 51 1028.0
20260831052052 21 90 3.2 11.3 0.00 0.03 0.03 52 1028.0
20260831051602 21 254 1.6 6.4 0.00 0.03 0.03 53 1027.9
20260831051052 21 38 3.2 9.7 0.00 0.03 0.03 52 1027.9
20260831050552 21 71 1.6 9.7 0.00 0.03 0.03 52 1027.9
20260831050052 21 99 1.6 9.7 0.00 0.03 0.03 52 1027.9
20260831045551 21 116 1.6 9.7 0.00 0.03 0.03 52 1027.9
20260831045054 21 82 3.2 12.9 0.00 0.03 0.03 51 1027.9
20260831044609 21 171 1.6 14.5 0.00 0.03 0.03 52 1027.9
20260831044049 21 311 1.6 14.5 0.00 0.03 0.03 53 1027.9
20260831043549 22 61 3.2 11.3 0.00 0.03 0.03 52 1027.9
20260831043049 22 53 3.2 8.0 0.00 0.03 0.03 52 1027.9
20260831042548 22 302 0.0 6.4 0.00 0.03 0.03 53 1028.0
20260831042047 22 79 1.6 6.4 0.00 0.03 0.03 52 1028.0
20260831041558 22 100 1.6 9.7 0.00 0.03 0.03 53 1028.0
20260831041047 22 123 3.2 9.7 0.00 0.03 0.03 53 1028.1
20260831040545 22 325 3.2 6.4 0.00 0.03 0.03 53 1028.1
20260831040044 22 83 0.0 4.8 0.00 0.03 0.03 55 1028.2
20260831035542 22 122 0.0 8.0 0.00 0.03 0.03 56 1028.2
20260831035042 22 294 1.6 12.9 0.00 0.03 0.03 53 1028.3
20260831034541 22 252 1.6 12.9 0.00 0.03 0.03 54 1028.3
20260831034041 22 322 1.6 9.7 0.00 0.03 0.03 54 1028.3
20260831033540 22 250 1.6 12.9 0.00 0.03 0.03 52 1028.4
20260831033041 22 275 4.8 12.9 0.00 0.03 0.03 52 1028.4
20260831032539 22 313 4.8 9.7 0.00 0.03 0.03 54 1028.5
20260831032038 21 190 1.6 9.7 0.00 0.03 0.03 53 1028.6
20260831031539 21 265 3.2 14.5 0.00 0.03 0.03 55 1028.6
20260831031036 22 298 6.4 12.9 0.00 0.03 0.03 53 1028.7
20260831030534 22 328 0.0 9.7 0.00 0.03 0.03 57 1028.7
20260831030033 22 322 3.2 9.7 0.00 0.03 0.03 56 1028.9
20260831025531 21 286 1.6 11.3 0.00 0.03 0.03 57 1029.0
20260831025031 21 293 1.6 17.7 0.00 0.03 0.03 57 1029.0
20260831024530 21 276 3.2 17.7 0.00 0.03 0.03 58 1029.2
20260831024027 21 265 1.6 11.3 0.00 0.03 0.03 59 1029.2
20260831023528 20 335 1.6 16.1 0.00 0.03 0.03 59 1029.4
20260831023027 20 265 6.4 16.1 0.00 0.03 0.03 59 1029.4
20260831022526 21 282 3.2 8.0 0.00 0.03 0.03 60 1029.5
20260831022026 21 5 1.6 6.4 0.00 0.03 0.03 60 1029.5
20260831021525 20 211 0.0 8.0 0.00 0.03 0.03 62 1029.6
20260831021023 20 325 3.2 12.9 0.00 0.03 0.03 62 1029.7
20260831020522 20 245 3.2 12.9 0.00 0.03 0.03 63 1029.7
20260831020022 20 321 3.2 12.9 0.00 0.03 0.03 62 1029.8
20260831015520 20 162 4.8 12.9 0.00 0.03 0.03 62 1029.9
20260831015019 20 257 3.2 9.7 0.00 0.03 0.03 64 1030.0
20260831014519 20 117 1.6 12.9 0.00 0.03 0.03 63 1030.1
20260831014019 20 294 6.4 12.9 0.00 0.03 0.03 64 1030.2
20260831013520 20 281 4.8 12.9 0.00 0.03 0.03 65 1030.2
20260831013017 19 107 0.0 11.3 0.00 0.03 0.03 65 1030.3
20260831012516 19 240 4.8 14.5 0.00 0.03 0.03 63 1030.3
20260831012014 19 217 4.8 12.9 0.00 0.03 0.03 64 1030.4
20260831011515 19 320 4.8 9.7 0.00 0.03 0.03 63 1030.5
20260831011013 19 301 1.6 8.0 0.00 0.03 0.03 63 1030.5
20260831010513 19 298 3.2 14.5 0.00 0.03 0.03 64 1030.6
20260831010014 19 269 4.8 14.5 0.00 0.03 0.03 64 1030.6
20260831005511 19 232 0.0 6.4 0.00 0.03 0.03 66 1030.6
20260831005010 19 76 0.0 6.4 0.00 0.03 0.03 66 1030.7
20260831004509 18 28 3.2 6.4 0.00 0.03 0.03 68 1030.7
20260831004008 18 105 0.0 6.4 0.00 0.03 0.03 69 1030.7
20260831003506 18 304 1.6 8.0 0.00 0.03 0.03 71 1030.9
20260831003005 18 308 3.2 16.1 0.00 0.03 0.03 72 1030.8
20260831002504 18 349 3.2 16.1 0.00 0.03 0.03 73 1030.9
20260831002003 18 317 6.4 12.9 0.00 0.03 0.03 74 1030.8
20260831001502 18 251 4.8 14.5 0.00 0.03 0.03 75 1030.8
20260831001001 17 327 6.4 17.7 0.00 0.03 0.03 75 1030.7
20260831000603 17 319 6.4 17.7 0.00 0.03 0.03 76 1030.8
20260830235559 17 14 6.4 16.1 0.00 0.03 0.03 79 1030.7
20260830235057 17 240 6.4 16.1 0.00 0.03 0.03 79 1030.8
20260830234602 17 273 4.8 9.7 0.00 0.03 0.03 79 1030.8
20260830234054 17 271 1.6 9.7 0.00 0.03 0.03 81 1030.7
20260830233556 16 311 3.2 8.0 0.00 0.03 0.03 81 1030.7
20260830233052 16 300 4.8 11.3 0.00 0.03 0.03 82 1030.8
20260830232553 16 241 4.8 11.3 0.00 0.03 0.03 82 1030.8
20260830232050 16 274 4.8 11.3 0.00 0.03 0.03 82 1030.8
20260830231550 16 259 4.8 11.3 0.00 0.03 0.03 83 1030.7
20260830231048 16 320 4.8 11.3 0.00 0.03 0.03 83 1030.7
20260830230547 16 298 1.6 8.0 0.00 0.03 0.03 84 1030.7
20260830230048 16 257 0.0 6.4 0.00 0.03 0.03 84 1030.7
20260830225646 16 346 1.6 6.4 0.00 0.03 0.03 85 1030.6
20260830225044 15 274 0.0 3.2 0.00 0.03 0.03 86 1030.6
20260830224543 15 317 0.0 4.8 0.00 0.03 0.03 87 1030.7
20260830224042 15 317 0.0 4.8 0.00 0.03 0.03 87 1030.7
20260830223542 15 295 0.0 4.8 0.00 0.03 0.03 87 1030.6
20260830223042 15 287 0.0 1.6 0.00 0.03 0.03 88 1030.7
20260830222539 15 287 0.0 0.0 0.00 0.03 0.03 88 1030.7
20260830222042 14 287 0.0 3.2 0.00 0.03 0.03 89 1030.6
20260830221540 14 286 0.0 3.2 0.00 0.03 0.03 89 1030.6
20260830221040 14 319 0.0 4.8 0.00 0.03 0.03 90 1030.6
20260830220534 13 319 3.2 4.8 0.00 0.03 0.03 90 1030.5
20260830220033 13 311 3.2 4.8 0.00 0.03 0.03 90 1030.5
20260830215532 13 310 0.0 4.8 0.00 0.03 0.03 91 1030.5
20260830215033 13 310 1.6 4.8 0.00 0.03 0.03 91 1030.5
20260830214530 13 311 0.0 4.8 0.00 0.03 0.03 92 1030.5
20260830214028 12 305 0.0 3.2 0.00 0.03 0.03 91 1030.4
20260830213528 12 305 1.6 4.8 0.00 0.03 0.03 91 1030.4
20260830213028 12 304 1.6 6.4 0.00 0.03 0.03 91 1030.4
20260830212527 12 307 3.2 6.4 0.00 0.03 0.03 91 1030.3
20260830212027 12 315 3.2 6.4 0.00 0.03 0.03 92 1030.3
20260830211527 12 302 3.2 6.4 0.00 0.03 0.03 92 1030.3
20260830211026 12 309 3.2 6.4 0.00 0.03 0.03 92 1030.2
20260830210526 12 317 3.2 8.0 0.00 0.03 0.03 92 1030.1
20260830210024 11 343 4.8 8.0 0.00 0.03 0.03 92 1030.1
20260830205523 11 322 3.2 6.4 0.00 0.03 0.03 92 1030.0
20260830205022 11 317 3.2 6.4 0.00 0.03 0.03 92 1029.9
20260830204523 11 283 1.6 6.4 0.00 0.03 0.03 92 1029.8
20260830204022 11 309 3.2 6.4 0.00 0.03 0.03 92 1029.7
20260830203623 11 318 3.2 6.4 0.00 0.03 0.03 92 1029.6
20260830203042 11 325 3.2 6.4 0.00 0.03 0.03 92 1029.6
20260830202521 11 321 3.2 6.4 0.00 0.03 0.03 92 1029.6
20260830202020 11 311 3.2 6.4 0.00 0.03 0.03 93 1029.5
20260830201521 11 294 0.0 0.0 0.00 0.03 0.03 93 1029.5
20260830201023 11 293 0.0 0.0 0.00 0.03 0.03 94 1029.6
20260830200520 11 293 0.0 0.0 0.00 0.03 0.03 94 1029.6
20260830200020 11 293 0.0 0.0 0.00 0.03 0.03 94 1029.5
20260830195519 11 293 0.0 0.0 0.00 0.03 0.03 94 1029.5
20260830195019 11 293 0.0 0.0 0.00 0.03 0.03 95 1029.3
20260830194519 11 293 0.0 0.0 0.00 0.03 0.03 95 1029.2
20260830194019 11 293 0.0 0.0 0.00 0.03 0.03 95 1029.3
20260830193519 10 293 0.0 0.0 0.00 0.03 0.03 95 1029.3
20260830193018 10 293 0.0 0.0 0.00 0.03 0.03 95 1029.3
20260830192517 11 293 0.0 0.0 0.00 0.03 0.03 95 1029.3
20260830192017 11 293 0.0 0.0 0.00 0.03 0.03 95 1029.2
20260830191517 11 293 0.0 0.0 0.00 0.03 0.03 95 1029.0
20260830191017 11 293 0.0 0.0 0.00 0.03 0.03 95 1029.0
20260830190518 11 293 0.0 0.0 0.00 0.03 0.03 95 1029.1
20260830190025 11 313 0.0 0.0 0.00 0.03 0.03 95 1029.0
20260830185515 11 313 0.0 0.0 0.00 0.03 0.03 95 1029.2
20260830185015 11 313 0.0 0.0 0.00 0.03 0.03 95 1029.3
20260830184526 11 313 0.0 0.0 0.00 0.03 0.03 95 1029.2
20260830184014 11 313 0.0 0.0 0.03 0.03 0.03 96 1029.2
20260830183514 11 313 0.0 0.0 0.03 0.03 0.03 95 1029.2
20260830183021 11 313 0.0 0.0 0.03 0.03 0.03 95 1029.2
20260830182514 11 313 0.0 0.0 0.03 0.03 0.03 95 1029.2
20260830182015 11 313 0.0 0.0 0.03 0.03 0.03 95 1029.2
20260830181513 11 313 0.0 0.0 0.03 0.03 0.03 95 1029.2
20260830181011 11 313 0.0 0.0 0.03 0.03 0.03 95 1029.3
20260830180511 11 313 0.0 0.0 0.03 0.03 0.03 95 1029.3
20260830180017 11 313 0.0 0.0 0.03 0.03 0.03 95 1029.2
20260830175510 11 313 0.0 0.0 0.03 0.03 0.03 95 1029.2
20260830175010 11 313 0.0 0.0 0.03 0.03 0.03 95 1029.2
20260830174513 11 313 0.0 0.0 0.03 0.03 0.03 95 1029.2
20260830174009 11 313 0.0 0.0 0.00 0.00 0.00 95 1029.2
20260830173509 11 313 0.0 0.0 0.00 0.00 0.00 95 1029.2
20260830173009 11 313 0.0 0.0 0.00 0.00 0.00 95 1029.2
20260830172513 11 313 0.0 0.0 0.00 0.00 0.00 95 1029.2
20260830172008 11 313 0.0 0.0 0.00 0.00 0.00 95 1029.3
20260830171508 11 313 0.0 0.0 0.00 0.00 0.00 95 1029.2
20260830171009 11 313 0.0 0.0 0.00 0.00 0.00 95 1029.2
20260830170512 11 313 0.0 0.0 0.00 0.00 0.00 95 1029.2
20260830170008 11 313 0.0 0.0 0.00 0.00 0.00 94 1029.3
20260830165505 11 313 0.0 0.0 0.00 0.00 0.00 95 1029.2
20260830165005 11 313 0.0 0.0 0.00 0.00 0.00 94 1029.3
20260830164504 11 313 0.0 0.0 0.00 0.00 0.00 94 1029.3
20260830164006 11 313 0.0 0.0 0.00 0.00 0.00 94 1029.2
20260830163503 11 313 0.0 0.0 0.00 0.00 0.00 94 1029.3
20260830163003 11 313 0.0 0.0 0.00 0.00 0.00 95 1029.3
20260830162504 11 313 0.0 0.0 0.00 0.00 0.00 95 1029.3
20260830162002 11 313 0.0 0.0 0.00 0.00 0.00 94 1029.3
20260830161503 11 313 0.0 0.0 0.00 0.00 0.00 94 1029.4
20260830161001 11 313 0.0 0.0 0.00 0.00 0.00 94 1029.2
20260830160502 11 313 0.0 0.0 0.00 0.00 0.00 94 1029.4
20260830160001 11 313 0.0 0.0 0.00 0.03 0.00 94 1029.4
20260830155600 12 313 0.0 0.0 0.00 0.03 0.00 94 1029.4
20260830155103 12 313 0.0 0.0 0.00 0.03 0.00 94 1029.5
20260830154600 12 313 0.0 0.0 0.00 0.03 0.00 94 1029.5
20260830154059 12 313 0.0 0.0 0.00 0.03 0.00 94 1029.5
20260830153559 12 313 0.0 0.0 0.00 0.03 0.00 94 1029.6
20260830153059 12 313 0.0 0.0 0.00 0.03 0.00 94 1029.6
20260830152559 12 313 0.0 0.0 0.00 0.03 0.00 94 1029.6
20260830152057 12 313 0.0 0.0 0.00 0.03 0.00 94 1029.6
20260830151557 12 313 0.0 0.0 0.00 0.03 0.00 94 1029.7
20260830151057 11 313 0.0 0.0 0.00 0.03 0.00 93 1029.7
20260830150557 11 313 0.0 0.0 0.00 0.03 0.00 93 1029.7
20260830150058 11 313 0.0 0.0 0.00 0.03 0.00 93 1029.7
20260830145556 12 313 0.0 0.0 0.00 0.03 0.00 93 1029.7
20260830145056 12 313 0.0 0.0 0.00 0.03 0.00 93 1029.8
20260830144605 12 313 0.0 0.0 0.00 0.03 0.00 93 1029.8
20260830144054 11 318 0.0 0.0 0.00 0.03 0.00 93 1029.8
20260830143557 11 318 0.0 0.0 0.00 0.03 0.00 92 1029.7
20260830143053 11 318 0.0 0.0 0.00 0.03 0.00 92 1029.8
20260830142555 11 318 0.0 0.0 0.00 0.03 0.00 92 1029.7
20260830142052 12 318 0.0 0.0 0.00 0.03 0.00 91 1029.8
20260830141551 12 318 0.0 0.0 0.00 0.03 0.00 91 1029.6
20260830141049 12 318 0.0 0.0 0.00 0.03 0.00 90 1029.7
20260830140548 12 318 0.0 0.0 0.00 0.03 0.00 90 1029.7
20260830140047 12 318 0.0 0.0 0.00 0.03 0.00 90 1029.6
20260830135547 12 318 0.0 0.0 0.00 0.03 0.03 90 1029.7
20260830135047 12 318 0.0 0.0 0.00 0.03 0.03 90 1029.7
20260830134549 12 318 0.0 0.0 0.00 0.03 0.03 89 1029.6
20260830134047 13 318 0.0 0.0 0.00 0.03 0.03 89 1029.6
20260830133547 13 318 0.0 0.0 0.00 0.03 0.03 89 1029.7
20260830133054 13 318 0.0 0.0 0.00 0.03 0.03 90 1029.7
20260830132547 13 318 0.0 0.0 0.00 0.03 0.03 90 1029.6
20260830132047 13 318 0.0 0.0 0.00 0.03 0.03 89 1029.6
20260830131546 13 318 0.0 0.0 0.00 0.03 0.03 90 1029.7
20260830131046 13 330 0.0 0.0 0.00 0.03 0.03 90 1029.7
20260830130546 13 330 0.0 0.0 0.00 0.03 0.03 90 1029.7
20260830130045 12 330 0.0 0.0 0.00 0.03 0.03 90 1029.7
20260830125544 12 330 0.0 0.0 0.00 0.03 0.03 90 1029.8
20260830125044 12 330 0.0 0.0 0.00 0.03 0.03 91 1029.7
20260830124545 12 330 0.0 0.0 0.00 0.03 0.03 91 1029.7
20260830124047 12 330 0.0 0.0 0.00 0.03 0.03 91 1029.9
20260830123545 13 330 0.0 0.0 0.00 0.03 0.03 91 1029.9
20260830123045 12 330 0.0 0.0 0.00 0.03 0.03 90 1029.9
20260830122544 13 330 0.0 0.0 0.00 0.03 0.03 90 1029.9
20260830122044 13 330 0.0 0.0 0.00 0.03 0.03 89 1029.8
20260830121544 13 330 0.0 0.0 0.00 0.03 0.03 89 1029.8
20260830121043 13 330 0.0 0.0 0.00 0.03 0.03 88 1029.7
20260830120543 13 330 0.0 0.0 0.00 0.03 0.03 88 1029.6
20260830120044 13 330 0.0 0.0 0.00 0.03 0.03 87 1029.6
20260830115543 13 330 0.0 0.0 0.00 0.03 0.03 88 1029.6
20260830115043 13 330 0.0 0.0 0.00 0.03 0.03 87 1029.5
20260830114556 13 330 0.0 0.0 0.00 0.03 0.03 87 1029.5
20260830114042 13 330 0.0 0.0 0.00 0.03 0.03 87 1029.5
20260830113542 13 330 0.0 0.0 0.00 0.03 0.03 87 1029.6
20260830113042 13 330 0.0 0.0 0.00 0.03 0.03 87 1029.6
20260830112542 14 330 0.0 0.0 0.00 0.03 0.03 87 1029.6
20260830112046 14 330 0.0 0.0 0.00 0.03 0.03 87 1029.6
20260830111542 14 330 0.0 0.0 0.00 0.03 0.03 86 1029.6
20260830111042 14 330 0.0 0.0 0.00 0.03 0.03 86 1029.6
20260830110548 14 330 0.0 0.0 0.00 0.03 0.03 86 1029.5
20260830110042 14 330 0.0 0.0 0.00 0.03 0.03 86 1029.5
20260830105541 14 330 0.0 0.0 0.00 0.03 0.03 86 1029.5
20260830105040 14 330 0.0 0.0 0.00 0.03 0.03 85 1029.4
20260830104543 14 330 0.0 0.0 0.00 0.03 0.03 85 1029.5
20260830104041 14 330 0.0 0.0 0.00 0.03 0.03 85 1029.5
20260830103541 15 330 0.0 0.0 0.00 0.03 0.03 85 1029.5
20260830103049 15 330 0.0 0.0 0.00 0.03 0.03 85 1029.5
20260830102540 15 330 0.0 0.0 0.00 0.03 0.03 84 1029.5
20260830102040 15 330 0.0 0.0 0.00 0.03 0.03 84 1029.4
20260830101540 15 330 0.0 0.0 0.00 0.03 0.03 83 1029.4
20260830101040 15 330 0.0 0.0 0.00 0.03 0.03 83 1029.5
20260830100541 15 330 0.0 0.0 0.00 0.03 0.03 83 1029.3
20260830100040 15 330 0.0 0.0 0.00 0.03 0.03 83 1029.3
20260830095540 15 330 0.0 0.0 0.00 0.03 0.03 83 1029.3
20260830095040 15 331 0.0 0.0 0.00 0.03 0.03 83 1029.3
20260830094542 15 338 0.0 4.8 0.00 0.03 0.03 83 1029.2
20260830094040 15 350 0.0 3.2 0.00 0.03 0.03 83 1029.2
20260830093540 15 350 0.0 3.2 0.00 0.03 0.03 83 1029.2
20260830093053 15 350 0.0 1.6 0.00 0.03 0.03 83 1029.1
20260830092539 15 350 0.0 1.6 0.00 0.03 0.03 83 1029.1
20260830092041 15 350 0.0 3.2 0.00 0.03 0.03 84 1029.2
20260830091539 15 350 0.0 3.2 0.00 0.03 0.03 84 1029.1
20260830091039 15 350 1.6 3.2 0.00 0.03 0.03 85 1029.0
20260830090538 15 355 0.0 1.6 0.00 0.03 0.03 84 1029.0
20260830090039 15 355 0.0 1.6 0.00 0.03 0.03 84 1028.9
20260830085537 15 355 0.0 1.6 0.00 0.03 0.03 84 1028.9
20260830085041 15 122 0.0 0.0 0.00 0.03 0.03 84 1028.9
20260830084538 15 122 0.0 0.0 0.00 0.03 0.03 84 1028.8
20260830084038 15 122 0.0 0.0 0.00 0.03 0.03 84 1028.8
20260830083537 15 122 0.0 0.0 0.00 0.03 0.03 84 1028.8
20260830083038 15 122 0.0 0.0 0.00 0.03 0.03 83 1028.6
20260830082536 15 122 0.0 0.0 0.00 0.03 0.03 83 1028.7
20260830082036 15 122 0.0 1.6 0.00 0.03 0.03 82 1028.6
20260830081538 15 122 0.0 1.6 0.00 0.03 0.03 82 1028.6
20260830081038 15 122 0.0 1.6 0.00 0.03 0.03 82 1028.6
20260830080536 15 122 0.0 0.0 0.00 0.03 0.03 81 1028.6
20260830080037 16 122 0.0 0.0 0.00 0.03 0.03 80 1028.5
20260830075535 16 122 0.0 0.0 0.00 0.03 0.03 79 1028.4
20260830075035 16 122 0.0 0.0 0.00 0.03 0.03 79 1028.4
20260830074535 16 122 0.0 0.0 0.00 0.03 0.03 79 1028.4
20260830074037 16 122 0.0 0.0 0.00 0.03 0.03 78 1028.4
20260830073535 16 122 0.0 0.0 0.00 0.03 0.03 78 1028.3
20260830073035 17 122 0.0 0.0 0.00 0.03 0.03 78 1028.3
20260830072535 17 122 0.0 0.0 0.00 0.03 0.03 77 1028.2
20260830072035 17 122 0.0 0.0 0.00 0.03 0.03 77 1028.2
20260830071602 17 122 0.0 0.0 0.00 0.03 0.03 76 1028.2
20260830071035 17 122 0.0 0.0 0.00 0.03 0.03 76 1028.1
20260830070536 17 122 0.0 3.2 0.00 0.03 0.03 76 1028.1
20260830070037 17 122 0.0 3.2 0.00 0.03 0.03 76 1028.1
20260830065535 17 122 0.0 3.2 0.00 0.03 0.03 75 1028.1
20260830065035 17 122 0.0 3.2 0.00 0.03 0.03 75 1028.0
20260830064533 17 122 0.0 3.2 0.00 0.03 0.03 75 1028.0
20260830064033 17 68 0.0 6.4 0.00 0.03 0.03 74 1028.0
20260830063533 18 68 1.6 6.4 0.00 0.03 0.03 73 1028.0
20260830063033 18 70 1.6 3.2 0.00 0.03 0.03 73 1028.0